[[{"header":{"parameterUnit":"m.s-1","parameterCategory":2,"la1":30.2991,"la2":30.254,"lo1":-89.0895,"lo2":-89.0444,"dy":0.0017,"dx":0.0017,"nx":28,"ny":28,"refTime":"2025-11-05T09:00:00:Z","depth":"0","parameterNumber":2,"parameterNumberName":"U-component_of_CURRENTS"},"data":[0,0,0,0,0,0,0,0,0,0,0,0,0,0,0,0,0,0,0,0,0,0,0,0,0,0,0,0,0,0,0,0,0,0,0,0,0,0,0,0,0,0,0,0,0,0,0,0,0,0,0,0,0,0,0,0,0,0,-0.1948,-0.1948,0,-0.1972,-0.1972,-0.1973,-0.2028,-0.2029,-0.203,-0.2031,-0.2186,-0.2189,-0.2192,0,0,0,0,0,0,0,0,0,0,0,0,0,-0.1927,-0.1928,-0.1948,-0.1948,-0.1948,-0.1972,-0.1972,-0.1973,-0.2028,-0.2029,-0.203,-0.2031,-0.2185,-0.2189,-0.2193,0,0,0,0,0,0,0,0,0,0,0,0,0,-0.1943,-0.1928,-0.1948,-0.1978,-0.1981,-0.1972,-0.1972,-0.1973,-0.2027,-0.2029,-0.2031,-0.2032,-0.2184,-0.2189,-0.2193,-0.2192,0,0,-0.2208,-0.221,0,0,0,0,0,0,0,0,-0.1942,-0.1944,-0.1973,-0.1976,-0.1979,-0.1997,-0.2022,-0.2052,-0.2027,-0.2011,-0.2031,-0.2033,-0.2133,-0.2142,-0.2143,-0.2199,-0.2206,-0.2208,-0.2211,-0.2213,-0.2215,0,0,0,0,0,0,0,-0.1941,-0.1943,-0.1959,-0.1973,-0.1977,-0.1982,-0.1986,-0.2027,-0.2067,-0.2012,-0.2016,-0.2016,-0.2136,-0.2138,-0.2148,-0.2208,-0.2208,-0.2212,-0.2215,-0.2217,-0.2279,-0.2278,0,0,0,0,0,0,-0.1935,-0.1942,-0.1958,-0.1959,-0.1963,-0.1981,-0.1986,-0.1991,-0.2063,-0.2075,-0.2015,-0.2019,-0.213,-0.2142,-0.2154,-0.2149,-0.2213,-0.2218,-0.222,-0.228,-0.2279,-0.2278,0,0,0,0,0,0,-0.1935,-0.1937,-0.1957,-0.195,-0.1953,-0.198,-0.1985,-0.199,-0.1996,-0.2064,-0.2078,-0.2015,-0.2131,-0.2147,-0.2174,-0.2156,-0.222,-0.2224,-0.2282,-0.228,-0.2278,-0.2145,0,0,0,0,0,0,-0.1934,-0.1936,-0.1936,-0.195,-0.1953,-0.1949,-0.1983,-0.199,-0.1993,-0.1998,-0.2068,-0.2084,-0.2134,-0.2166,-0.2179,-0.2164,-0.2228,-0.2283,-0.2281,-0.2279,-0.2151,-0.2139,-0.2129,0,0,0,0,0,-0.1933,-0.1915,-0.1936,-0.1937,-0.1952,-0.1948,-0.195,-0.1975,-0.1991,-0.1987,-0.2024,-0.2082,-0.2161,-0.2168,-0.2183,-0.217,-0.2285,-0.2282,-0.2279,-0.2156,-0.2142,-0.2129,0,0,0,0,0,0,-0.1897,-0.1919,-0.1942,-0.1931,-0.1942,-0.1957,-0.1943,-0.1966,-0.1988,-0.1994,-0.2062,-0.2079,-0.2091,-0.2149,-0.2155,-0.2181,-0.2235,-0.2235,-0.2136,-0.2123,-0.2112,-0.2127,-0.2232,0,0,0,0,0,-0.189,-0.1883,-0.1911,-0.1896,-0.19,-0.1922,-0.1922,-0.1942,-0.1962,-0.1973,-0.2021,-0.2067,-0.2089,-0.212,-0.2152,-0.2171,-0.2199,-0.2175,-0.2163,-0.2153,-0.2175,-0.2166,-0.2156,-0.2269,-0.2269,-0.2269,0,0,-0.1868,-0.1878,-0.1874,-0.1888,-0.1893,-0.1902,-0.1926,-0.1917,-0.1929,-0.1988,-0.2008,-0.2024,-0.2081,-0.2089,-0.2103,-0.214,-0.2128,-0.215,-0.2141,-0.2169,-0.2162,-0.2151,-0.2141,-0.2267,-0.2267,-0.2267,0,0,-0.1815,-0.1831,-0.1814,-0.1831,-0.1843,-0.1863,-0.1861,-0.1882,-0.1895,-0.1911,-0.194,-0.1939,-0.2007,-0.2022,-0.2043,-0.1994,-0.2056,-0.2013,-0.1986,-0.1975,-0.1965,-0.1958,-0.1943,-0.1935,-0.2023,-0.2023,-0.2022,0,-0.1792,-0.1788,-0.1805,-0.1805,-0.1819,-0.1848,-0.1849,-0.1861,-0.189,-0.1894,-0.1911,-0.1943,-0.1974,-0.1974,-0.1952,-0.1968,-0.1979,-0.2026,-0.1958,-0.1952,-0.1946,-0.1933,-0.1926,-0.2016,-0.2017,-0.2017,-0.2018,0,-0.1737,-0.1752,-0.1735,-0.1762,-0.1774,-0.1769,-0.1806,-0.1813,-0.1833,-0.1852,-0.1846,-0.1861,-0.1891,-0.1881,-0.1907,-0.1879,-0.1902,-0.1926,-0.1987,-0.1926,-0.1917,-0.1912,-0.2006,-0.2009,-0.2011,-0.2012,0,0,-0.1648,-0.1694,-0.1691,-0.1719,-0.1758,-0.1762,-0.1774,-0.1793,-0.1801,-0.1811,-0.1813,-0.1804,-0.1809,-0.1833,-0.1841,-0.1831,-0.1766,-0.1867,-0.1869,-0.1844,-0.1742,-0.1669,-0.1658,-0.178,-0.1779,-0.1778,-0.1738,0,-0.1606,-0.1616,-0.1646,-0.1665,-0.1682,-0.1728,-0.1742,-0.1765,-0.1784,-0.1793,-0.1787,-0.1791,-0.1794,-0.1792,-0.1775,-0.1784,-0.1755,-0.1776,-0.1816,-0.1817,-0.1752,-0.165,-0.1567,-0.1517,-0.1733,-0.1733,-0.1732,0,-0.1548,-0.1571,-0.1586,-0.1651,-0.1658,-0.1672,-0.1708,-0.1725,-0.1746,-0.1759,-0.1757,-0.1769,-0.175,-0.1758,-0.1734,-0.1752,-0.1737,-0.1734,-0.1732,-0.172,-0.1736,-0.1623,-0.1501,-0.1493,-0.1726,-0.1726,-0.1727,0,-0.149,-0.1532,-0.1548,-0.157,-0.1637,-0.1644,-0.1671,-0.1703,-0.1714,-0.1734,-0.174,-0.1737,-0.1731,-0.172,-0.1711,-0.1727,-0.1685,-0.1706,-0.1619,-0.1614,-0.1582,-0.1575,-0.1456,-0.1668,-0.1668,-0.1668,-0.1668,0,-0.1448,-0.146,-0.1524,-0.1537,-0.1549,-0.1608,-0.1615,-0.1644,-0.1675,-0.1677,-0.1712,-0.1708,-0.1723,-0.1708,-0.1701,-0.1637,-0.1672,-0.1595,-0.1589,-0.1529,-0.1518,-0.1546,-0.1582,-0.1666,-0.1667,-0.1667,-0.1667,0,-0.1385,-0.143,-0.1453,-0.1512,-0.1527,-0.1532,-0.1581,-0.1585,-0.1629,-0.1633,-0.1638,-0.1677,-0.1655,-0.1654,-0.1636,-0.1606,-0.1534,-0.1536,-0.1458,-0.1442,-0.1339,-0.1371,-0.1302,-0.1265,-0.1424,-0.1422,-0.142,0,-0.1354,-0.1362,-0.1416,-0.1421,-0.1444,-0.1467,-0.1479,-0.1543,-0.1553,-0.1606,-0.1597,-0.1597,-0.1567,-0.1514,-0.1469,-0.1413,-0.144,-0.131,-0.1307,-0.1294,-0.1329,-0.1366,-0.1344,-0.1207,-0.1203,-0.12,-0.1198,0,-0.1289,-0.1307,-0.1325,-0.1341,-0.1353,-0.1372,-0.1398,-0.1404,-0.1474,-0.1483,-0.1489,-0.1472,-0.1423,-0.1329,-0.1263,-0.123,-0.127,-0.1247,-0.1256,-0.1153,-0.1168,-0.1142,-0.1283,-0.1173,-0.1175,-0.1177,-0.1179,-0.118,-0.1223,-0.1217,-0.124,-0.1244,-0.1258,-0.126,-0.1244,-0.1283,-0.1288,-0.1292,-0.1341,-0.1292,-0.1234,-0.1118,-0.1081,-0.0993,-0.1066,-0.0969,-0.1011,-0.1051,-0.0999,-0.1071,-0.0943,-0.0944,-0.0945,-0.0946,-0.0946,0,-0.1136,-0.1141,-0.1142,-0.1144,-0.1119,-0.1162,-0.1172,-0.1145,-0.1119,-0.1151,-0.1133,-0.106,-0.0955,-0.0924,-0.0837,-0.0787,-0.0786,-0.0784,-0.083,-0.0819,-0.0886,-0.0859,-0.0678,-0.0678,-0.0678,-0.0678,-0.0679,-0.0679,-0.1089,-0.1061,-0.1067,-0.1003,-0.0999,-0.0944,-0.0929,-0.091,-0.0914,-0.0872,-0.0853,-0.0859,-0.0836,-0.0854,-0.0769,-0.0721,-0.073,-0.0693,-0.0741,-0.081,-0.0832,-0.0853,-0.0832,-0.065,-0.065,-0.0626,-0.0626,-0.0626]},{"header":{"parameterUnit":"m.s-1","parameterCategory":2,"la1":30.2991,"la2":30.254,"lo1":-89.0895,"lo2":-89.0444,"dy":0.0017,"dx":0.0017,"nx":28,"ny":28,"refTime":"2025-11-05T09:00:00:Z","depth":"0","parameterNumber":3,"parameterNumberName":"V-component_of_CURRENTS"},"data":[0,0,0,0,0,0,0,0,0,0,0,0,0,0,0,0,0,0,0,0,0,0,0,0,0,0,0,0,0,0,0,0,0,0,0,0,0,0,0,0,0,0,0,0,0,0,0,0,0,0,0,0,0,0,0,0,0,0,-0.0212,-0.0211,0,-0.0141,-0.014,-0.0139,-0.0106,-0.0106,-0.0106,-0.0106,-0.0008,-0.0005,-0.0003,0,0,0,0,0,0,0,0,0,0,0,0,0,-0.0288,-0.0287,-0.0212,-0.0211,-0.021,-0.0141,-0.014,-0.0139,-0.0106,-0.0106,-0.0106,-0.0106,-0.0009,-0.0006,-0.0002,0,0,0,0,0,0,0,0,0,0,0,0,0,-0.024,-0.0287,-0.0212,-0.0185,-0.0182,-0.0141,-0.014,-0.0139,-0.0106,-0.0106,-0.0106,-0.0106,-0.001,-0.0006,-0.0002,0.0024,0,0,0.001,0.0012,0,0,0,0,0,0,0,0,-0.0243,-0.0237,-0.019,-0.0187,-0.0183,-0.0133,-0.0131,-0.0083,-0.0106,-0.0135,-0.0106,-0.0106,-0.0047,-0.004,-0.0027,0.0029,0.0033,0.001,0.0013,0.0015,0.0016,0,0,0,0,0,0,0,-0.0246,-0.024,-0.0184,-0.0189,-0.0185,-0.0167,-0.016,-0.0122,-0.0091,-0.0132,-0.013,-0.0122,-0.0045,-0.0031,-0.0024,0.0034,0.001,0.0014,0.0016,0.0018,0.0124,0.0124,0,0,0,0,0,0,-0.0257,-0.0243,-0.0186,-0.0181,-0.0214,-0.0165,-0.0158,-0.0149,-0.0092,-0.0083,-0.0122,-0.0121,-0.0037,-0.0029,-0.002,-0.0008,0.0015,0.0018,0.0021,0.0124,0.0124,0.0125,0,0,0,0,0,0,-0.0259,-0.0252,-0.0189,-0.0211,-0.0202,-0.0164,-0.0154,-0.0147,-0.0133,-0.0084,-0.0075,-0.0115,-0.0037,-0.0026,0.0013,-0.0003,0.002,0.0024,0.0123,0.0124,0.0124,0.0032,0,0,0,0,0,0,-0.0261,-0.0253,-0.0249,-0.0212,-0.0201,-0.0171,-0.0153,-0.0146,-0.0128,-0.0126,-0.0075,-0.0066,-0.0036,0.0006,0.0016,0.0003,0.0027,0.0123,0.0123,0.0124,0.0034,0.0029,0.0025,0,0,0,0,0,-0.0264,-0.0256,-0.0249,-0.0242,-0.0197,-0.0171,-0.0164,-0.0137,-0.0128,-0.0124,-0.0088,-0.0067,0.0019,0.001,0.0022,0.0009,0.0122,0.0123,0.0124,0.0036,0.003,0.0025,0,0,0,0,0,0,-0.0286,-0.025,-0.0243,-0.0224,-0.0204,-0.0165,-0.0155,-0.0139,-0.0107,-0.0104,-0.006,-0.0048,-0.0023,0.0016,0.0005,0.0046,0.0073,0.0077,0.0003,-0.0002,-0.0007,-0.0017,0.003,0,0,0,0,0,-0.029,-0.0274,-0.0244,-0.0231,-0.0222,-0.0191,-0.0176,-0.0161,-0.0129,-0.0115,-0.0081,-0.004,-0.0009,0.0011,0.0048,0.0074,0.0107,0.0076,0.0071,0.0066,0.0069,0.0094,0.0091,0.0128,0.0128,0.0128,0,0,-0.0294,-0.0273,-0.0264,-0.0235,-0.0216,-0.0213,-0.0182,-0.0165,-0.0163,-0.0108,-0.0092,-0.0056,-0.0004,0.0017,0.0033,0.0046,0.0076,0.0068,0.0063,0.0068,0.0095,0.0091,0.0088,0.0128,0.0128,0.0128,0,0,-0.0303,-0.0279,-0.0276,-0.0264,-0.0241,-0.0224,-0.0222,-0.019,-0.0176,-0.0153,-0.0119,-0.0091,-0.0035,-0.001,0.0012,0.001,0.0047,0.0022,-0.0011,0.0012,0.0009,0.0006,0.0043,0.0044,0.0021,0.002,0.002,0,-0.0313,-0.0306,-0.0272,-0.0273,-0.0271,-0.0235,-0.0244,-0.0223,-0.0184,-0.0174,-0.0158,-0.0088,-0.005,-0.0028,-0.0031,-0.0005,0.0022,-0.0003,0.0003,0.0001,-0.0,0.0038,0.0041,0.0016,0.0017,0.0017,0.0017,0,-0.0324,-0.0325,-0.0322,-0.0316,-0.0308,-0.0307,-0.0283,-0.0271,-0.025,-0.0228,-0.0199,-0.0148,-0.0106,-0.0095,-0.0064,-0.0054,-0.0028,-0.0013,0.0006,-0.001,0.0033,0.0037,0.001,0.0011,0.0013,0.0014,0,0,-0.033,-0.0333,-0.0333,-0.035,-0.0334,-0.0331,-0.0328,-0.0314,-0.0312,-0.0274,-0.0266,-0.0217,-0.0186,-0.0156,-0.0118,-0.0097,-0.0086,-0.0063,-0.006,-0.0044,-0.0025,0.0016,0.0025,-0.0078,-0.0078,-0.0078,0.0007,0,-0.0354,-0.0381,-0.0368,-0.0398,-0.0415,-0.039,-0.0392,-0.0374,-0.0346,-0.0327,-0.0276,-0.025,-0.021,-0.0194,-0.0168,-0.0103,-0.0078,-0.0109,0.0007,0.0011,0.0033,0.003,0.0053,0.0132,0.0012,0.0013,0.0013,0,-0.0372,-0.0391,-0.0429,-0.0454,-0.0457,-0.0465,-0.0463,-0.0458,-0.0419,-0.0397,-0.036,-0.0312,-0.0266,-0.0235,-0.014,-0.0163,-0.01,-0.0051,-0.0046,0.0028,0.0059,0.0134,0.0146,0.0236,0.0021,0.002,0.0019,0,-0.0406,-0.0433,-0.047,-0.0479,-0.0495,-0.0503,-0.0505,-0.0479,-0.0477,-0.0437,-0.0424,-0.0361,-0.032,-0.0247,-0.013,-0.0139,-0.002,-0.0019,0.0078,0.0082,0.0146,0.0155,0.0245,0.0042,0.0042,0.0042,0.0042,0,-0.0442,-0.047,-0.049,-0.0514,-0.0552,-0.0544,-0.0566,-0.0553,-0.0532,-0.0522,-0.0462,-0.0427,-0.0322,-0.0234,-0.0143,-0.0008,-0.0026,0.0078,0.0105,0.0117,0.0122,0.0241,0.0274,0.0045,0.0044,0.0044,0.0043,0,-0.0477,-0.049,-0.0536,-0.0564,-0.0573,-0.0599,-0.0613,-0.0622,-0.0595,-0.0577,-0.0565,-0.0473,-0.0348,-0.023,-0.009,-0.0013,0.0169,0.0155,0.017,0.0197,0.0355,0.0383,0.0518,0.0581,0.0264,0.0265,0.0266,0,-0.0499,-0.0527,-0.0575,-0.0602,-0.0616,-0.0648,-0.0666,-0.0656,-0.0657,-0.059,-0.058,-0.046,-0.0351,-0.0131,0.002,0.0188,0.0256,0.03,0.0283,0.0375,0.0426,0.0444,0.0487,0.0336,0.0337,0.0339,0.034,0,-0.054,-0.0554,-0.0591,-0.0648,-0.068,-0.0714,-0.0733,-0.074,-0.0707,-0.0664,-0.0568,-0.0473,-0.0255,-0.0047,0.016,0.0257,0.0371,0.0334,0.0424,0.0488,0.052,0.059,0.0277,0.0352,0.0351,0.035,0.035,0.0349,-0.0562,-0.0598,-0.0642,-0.0692,-0.073,-0.076,-0.0774,-0.0759,-0.0732,-0.0632,-0.0548,-0.0359,-0.0107,0.0194,0.0301,0.052,0.0495,0.0583,0.061,0.0621,0.0678,0.0399,0.0505,0.0505,0.0504,0.0504,0.0504,0,-0.0589,-0.0627,-0.068,-0.0737,-0.0776,-0.0787,-0.0802,-0.0778,-0.0714,-0.0576,-0.0446,-0.0117,0.0145,0.0375,0.0659,0.0784,0.0805,0.0846,0.0873,0.0906,0.066,0.0659,0.0809,0.0809,0.0809,0.0809,0.0809,0.0809,-0.0605,-0.066,-0.0689,-0.0757,-0.079,-0.0814,-0.0813,-0.0745,-0.0641,-0.0396,-0.0175,0.0005,0.0309,0.073,0.0999,0.1027,0.1136,0.1129,0.1191,0.1011,0.0988,0.0966,0.0974,0.1188,0.1188,0.143,0.1433,0.1434]}],[{"header":{"parameterUnit":"m.s-1","parameterCategory":2,"la1":30.2991,"la2":30.254,"lo1":-89.0895,"lo2":-89.0444,"dy":0.0017,"dx":0.0017,"nx":28,"ny":28,"refTime":"2025-11-05T09:00:00:Z","depth":"2","parameterNumber":2,"parameterNumberName":"U-component_of_CURRENTS"},"data":[0,0,0,0,0,0,0,0,0,0,0,0,0,0,0,0,0,0,0,0,0,0,0,0,0,0,0,0,0,0,0,0,0,0,0,0,0,0,0,0,0,0,0,0,0,0,0,0,0,0,0,0,0,0,0,0,0,0,-0.1422,-0.1422,0,-0.1452,-0.1452,-0.1452,-0.145,-0.145,-0.145,-0.145,-0.1444,-0.1444,-0.1444,0,0,0,0,0,0,0,0,0,0,0,0,0,-0.1386,-0.1387,-0.1421,-0.1422,-0.1423,-0.1452,-0.1452,-0.1452,-0.145,-0.145,-0.145,-0.145,-0.1444,-0.1444,-0.1444,0,0,0,0,0,0,0,0,0,0,0,0,0,-0.1404,-0.1387,-0.1421,-0.1429,-0.143,-0.1452,-0.1452,-0.1452,-0.145,-0.145,-0.145,-0.145,-0.1444,-0.1444,-0.1444,-0.1444,0,0,-0.1443,-0.1443,0,0,0,0,0,0,0,0,-0.1403,-0.1404,-0.1427,-0.1428,-0.143,-0.1451,-0.1437,-0.1449,-0.145,-0.1438,-0.145,-0.145,-0.1446,-0.1445,-0.1446,-0.1444,-0.1444,-0.1443,-0.1443,-0.1443,-0.1443,0,0,0,0,0,0,0,-0.1401,-0.1403,-0.1429,-0.1428,-0.143,-0.1439,-0.1441,-0.144,-0.1438,-0.1439,-0.144,-0.145,-0.1446,-0.1446,-0.1446,-0.1444,-0.1443,-0.1443,-0.1443,-0.1443,-0.1481,-0.1482,0,0,0,0,0,0,-0.1405,-0.1402,-0.1428,-0.143,-0.142,-0.144,-0.1442,-0.1441,-0.1439,-0.144,-0.145,-0.145,-0.1446,-0.1446,-0.1445,-0.1462,-0.1443,-0.1443,-0.1443,-0.148,-0.1481,-0.1483,0,0,0,0,0,0,-0.1404,-0.1406,-0.1427,-0.1421,-0.1425,-0.1441,-0.144,-0.1441,-0.1446,-0.1448,-0.1448,-0.1454,-0.1446,-0.1446,-0.1453,-0.1461,-0.1443,-0.1443,-0.1479,-0.148,-0.1482,-0.1485,0,0,0,0,0,0,-0.1402,-0.1405,-0.1408,-0.1421,-0.1425,-0.1438,-0.144,-0.1442,-0.1454,-0.1454,-0.1451,-0.1451,-0.1446,-0.1453,-0.1453,-0.1461,-0.1443,-0.1477,-0.148,-0.1481,-0.1483,-0.1486,-0.1489,0,0,0,0,0,-0.1401,-0.1405,-0.1408,-0.1412,-0.1427,-0.1439,-0.1441,-0.145,-0.1454,-0.1453,-0.146,-0.1451,-0.1467,-0.1454,-0.1453,-0.1461,-0.1476,-0.1479,-0.1481,-0.1482,-0.1486,-0.1489,0,0,0,0,0,0,-0.139,-0.1407,-0.1409,-0.1418,-0.1427,-0.144,-0.1447,-0.1453,-0.1458,-0.1459,-0.1458,-0.1458,-0.1469,-0.1469,-0.1456,-0.1482,-0.1473,-0.1475,-0.1474,-0.1477,-0.148,-0.1475,-0.1443,0,0,0,0,0,-0.1391,-0.1396,-0.1411,-0.1417,-0.1423,-0.1435,-0.1443,-0.1448,-0.1456,-0.1458,-0.146,-0.1469,-0.1479,-0.1481,-0.1487,-0.1495,-0.1484,-0.1505,-0.1507,-0.151,-0.1507,-0.1502,-0.1503,-0.1491,-0.1491,-0.1491,0,0,-0.1389,-0.1399,-0.1402,-0.1415,-0.1423,-0.1436,-0.1438,-0.1449,-0.1462,-0.1457,-0.1471,-0.1475,-0.1485,-0.1497,-0.1502,-0.1496,-0.1508,-0.1513,-0.1514,-0.1511,-0.1505,-0.1506,-0.1507,-0.1492,-0.1492,-0.1492,0,0,-0.1386,-0.1395,-0.1398,-0.1411,-0.1428,-0.1438,-0.1443,-0.1457,-0.1463,-0.1477,-0.1483,-0.1492,-0.1505,-0.1512,-0.1519,-0.1543,-0.1523,-0.155,-0.1555,-0.1551,-0.1551,-0.1551,-0.1531,-0.153,-0.1551,-0.1551,-0.1551,0,-0.1384,-0.139,-0.1401,-0.1412,-0.1427,-0.144,-0.145,-0.1463,-0.1478,-0.1484,-0.1483,-0.1507,-0.1513,-0.1531,-0.1542,-0.1546,-0.1535,-0.1537,-0.1552,-0.1552,-0.1552,-0.1532,-0.153,-0.1551,-0.1551,-0.1551,-0.1551,0,-0.1382,-0.1395,-0.14,-0.1418,-0.1434,-0.1444,-0.1468,-0.148,-0.1492,-0.1501,-0.1517,-0.1524,-0.1536,-0.1545,-0.155,-0.1561,-0.155,-0.1553,-0.1536,-0.1553,-0.1531,-0.1529,-0.1552,-0.1552,-0.1551,-0.1551,0,0,-0.1348,-0.1391,-0.1391,-0.1406,-0.1438,-0.1449,-0.1476,-0.1496,-0.151,-0.1522,-0.1533,-0.1554,-0.1551,-0.156,-0.1566,-0.1565,-0.1556,-0.156,-0.156,-0.1528,-0.1532,-0.1467,-0.1458,-0.1559,-0.1559,-0.1559,-0.1513,0,-0.1339,-0.1364,-0.1387,-0.1413,-0.1429,-0.1458,-0.1481,-0.1505,-0.1521,-0.1536,-0.1545,-0.1557,-0.156,-0.1563,-0.1564,-0.1565,-0.1553,-0.1568,-0.1532,-0.1531,-0.146,-0.1454,-0.1345,-0.129,-0.1511,-0.151,-0.151,0,-0.1321,-0.1345,-0.1368,-0.1415,-0.1423,-0.1441,-0.1476,-0.1499,-0.1528,-0.1539,-0.1551,-0.1558,-0.1568,-0.1564,-0.1555,-0.1564,-0.1546,-0.1539,-0.1537,-0.1472,-0.1461,-0.1313,-0.1278,-0.1506,-0.1507,-0.1507,-0.1507,0,-0.1284,-0.1328,-0.1347,-0.1363,-0.1417,-0.143,-0.1456,-0.1492,-0.1507,-0.1537,-0.1543,-0.1557,-0.1557,-0.1549,-0.1537,-0.1546,-0.1515,-0.1524,-0.1443,-0.1438,-0.1335,-0.1321,-0.1503,-0.1503,-0.1503,-0.1503,-0.1503,0,-0.1263,-0.1275,-0.1332,-0.1342,-0.136,-0.1409,-0.1425,-0.1455,-0.149,-0.1498,-0.1535,-0.1533,-0.1552,-0.154,-0.1531,-0.1472,-0.1505,-0.1433,-0.142,-0.1333,-0.132,-0.1506,-0.1507,-0.1501,-0.1501,-0.1502,-0.1502,0,-0.1212,-0.1252,-0.1274,-0.1329,-0.1343,-0.1353,-0.1399,-0.141,-0.1454,-0.1466,-0.1473,-0.1509,-0.1489,-0.149,-0.1473,-0.1447,-0.1413,-0.1381,-0.1271,-0.1245,-0.134,-0.1342,-0.1284,-0.1281,-0.1279,-0.1277,-0.1275,0,-0.1187,-0.1195,-0.1247,-0.1254,-0.1274,-0.1301,-0.1314,-0.1375,-0.1389,-0.144,-0.1435,-0.1437,-0.1405,-0.1357,-0.1315,-0.1262,-0.1332,-0.1141,-0.1137,-0.1324,-0.1317,-0.1323,-0.1328,-0.1002,-0.0999,-0.0996,-0.0993,0,-0.113,-0.1149,-0.1167,-0.1186,-0.1201,-0.1219,-0.1248,-0.1256,-0.1322,-0.1331,-0.1331,-0.1312,-0.1265,-0.1158,-0.1102,-0.1068,-0.1144,-0.1075,-0.1292,-0.1077,-0.1055,-0.105,-0.1064,-0.0966,-0.0969,-0.0971,-0.0972,-0.0973,-0.1074,-0.1071,-0.1095,-0.1103,-0.112,-0.1123,-0.1108,-0.1141,-0.1145,-0.1138,-0.1183,-0.1113,-0.1102,-0.0942,-0.0889,-0.0855,-0.0939,-0.0909,-0.092,-0.0933,-0.0911,-0.0886,-0.0761,-0.0762,-0.0764,-0.0765,-0.0766,0,-0.0998,-0.1005,-0.1009,-0.1016,-0.0999,-0.1038,-0.1046,-0.1014,-0.098,-0.098,-0.095,-0.0833,-0.0745,-0.0743,-0.0634,-0.0615,-0.0627,-0.06,-0.0619,-0.0645,-0.0669,-0.0635,-0.0411,-0.041,-0.0409,-0.0408,0,0,-0.0957,-0.0935,-0.0941,-0.089,-0.089,-0.084,-0.0824,-0.0788,-0.0766,-0.0697,-0.0654,-0.0681,-0.0698,-0.0551,-0.0519,-0.0443,-0.0541,-0.0418,-0.0699,-0.0746,-0.0768,-0.0838,-0.0814,0,0,0,0,0]},{"header":{"parameterUnit":"m.s-1","parameterCategory":2,"la1":30.2991,"la2":30.254,"lo1":-89.0895,"lo2":-89.0444,"dy":0.0017,"dx":0.0017,"nx":28,"ny":28,"refTime":"2025-11-05T09:00:00:Z","depth":"2","parameterNumber":3,"parameterNumberName":"V-component_of_CURRENTS"},"data":[0,0,0,0,0,0,0,0,0,0,0,0,0,0,0,0,0,0,0,0,0,0,0,0,0,0,0,0,0,0,0,0,0,0,0,0,0,0,0,0,0,0,0,0,0,0,0,0,0,0,0,0,0,0,0,0,0,0,-0.0136,-0.0135,0,-0.0084,-0.0084,-0.0083,-0.0041,-0.0041,-0.0041,-0.0041,0.0079,0.0082,0.0085,0,0,0,0,0,0,0,0,0,0,0,0,0,-0.0163,-0.0163,-0.0136,-0.0135,-0.0135,-0.0084,-0.0084,-0.0083,-0.0041,-0.0041,-0.0041,-0.004,0.0078,0.0081,0.0085,0,0,0,0,0,0,0,0,0,0,0,0,0,-0.0134,-0.0163,-0.0136,-0.0109,-0.0106,-0.0085,-0.0084,-0.0083,-0.0042,-0.0041,-0.0041,-0.004,0.0077,0.0081,0.0085,0.0103,0,0,0.0099,0.0101,0,0,0,0,0,0,0,0,-0.0136,-0.0133,-0.0114,-0.0111,-0.0108,-0.007,-0.0049,-0.0017,-0.0042,-0.0065,-0.0041,-0.004,0.0034,0.0042,0.0052,0.0109,0.0114,0.0099,0.0102,0.0104,0.0105,0,0,0,0,0,0,0,-0.0138,-0.0135,-0.0114,-0.0113,-0.011,-0.0088,-0.0083,-0.0043,-0.0016,-0.0063,-0.006,-0.0056,0.0037,0.0047,0.0055,0.0116,0.0099,0.0103,0.0106,0.0107,0.0191,0.019,0,0,0,0,0,0,-0.0149,-0.0137,-0.0116,-0.0113,-0.0123,-0.0088,-0.0083,-0.0081,-0.0018,-0.0009,-0.0057,-0.0055,0.004,0.005,0.0059,0.0076,0.0104,0.0108,0.011,0.0191,0.0191,0.019,0,0,0,0,0,0,-0.015,-0.0148,-0.0118,-0.0125,-0.0119,-0.0088,-0.0087,-0.0081,-0.0069,-0.0015,-0.0004,-0.0052,0.004,0.0053,0.0086,0.0081,0.011,0.0114,0.0192,0.0191,0.0191,0.0115,0,0,0,0,0,0,-0.0151,-0.0149,-0.0151,-0.0126,-0.0119,-0.011,-0.0087,-0.008,-0.0068,-0.0065,-0.0006,0.0005,0.0042,0.0079,0.0091,0.0088,0.0117,0.0192,0.0191,0.0191,0.0118,0.0112,0.0107,0,0,0,0,0,-0.0153,-0.0157,-0.0151,-0.0149,-0.0124,-0.011,-0.0105,-0.008,-0.0069,-0.0067,-0.0032,0.0003,0.0083,0.0082,0.0096,0.0094,0.0193,0.0192,0.0191,0.012,0.0113,0.0107,0,0,0,0,0,0,-0.017,-0.0153,-0.0146,-0.0145,-0.0132,-0.0104,-0.0099,-0.0084,-0.0056,-0.0051,-0.0,0.0013,0.0039,0.0077,0.0075,0.0116,0.0144,0.0145,0.0085,0.0079,0.0073,0.0069,0.0121,0,0,0,0,0,-0.0177,-0.0176,-0.0157,-0.0158,-0.0152,-0.0128,-0.0119,-0.0104,-0.0077,-0.0065,-0.0027,0.0014,0.0045,0.0069,0.0104,0.0129,0.0163,0.0137,0.0131,0.0126,0.0132,0.0166,0.0164,0.0187,0.0187,0.0187,0,0,-0.0184,-0.0175,-0.0174,-0.0161,-0.0148,-0.0147,-0.0121,-0.0112,-0.0109,-0.0055,-0.0037,-0.0004,0.0047,0.0069,0.0085,0.0101,0.0135,0.0125,0.012,0.0129,0.0165,0.0163,0.0161,0.0187,0.0187,0.0187,0,0,-0.0202,-0.0192,-0.0197,-0.019,-0.0177,-0.0161,-0.0162,-0.0138,-0.0124,-0.0106,-0.0071,-0.0044,0.0009,0.004,0.0063,0.0051,0.01,0.0062,0.0036,0.0068,0.0067,0.0066,0.0092,0.0094,0.0063,0.0063,0.0062,0,-0.0213,-0.0218,-0.0197,-0.0203,-0.0201,-0.0172,-0.0181,-0.0164,-0.0133,-0.0121,-0.0109,-0.0043,-0.0004,0.0026,0.0017,0.0038,0.0063,0.0055,0.006,0.006,0.0061,0.0088,0.0091,0.0059,0.0059,0.006,0.006,0,-0.0233,-0.024,-0.0243,-0.0242,-0.0236,-0.0239,-0.0218,-0.0207,-0.0188,-0.0167,-0.0137,-0.0092,-0.0049,-0.0039,-0.0013,0.0006,0.0024,0.0044,0.0074,0.0054,0.0084,0.0088,0.0053,0.0055,0.0056,0.0057,0,0,-0.0253,-0.0259,-0.026,-0.0271,-0.0259,-0.0259,-0.0253,-0.0237,-0.023,-0.0198,-0.0184,-0.014,-0.0111,-0.0083,-0.0048,-0.0022,-0.0008,0.0007,0.001,0.0027,0.0059,0.0076,0.0083,0.001,0.0011,0.0012,0.0074,0,-0.0277,-0.0304,-0.0294,-0.0318,-0.0332,-0.0307,-0.0304,-0.0285,-0.0258,-0.0234,-0.0186,-0.0157,-0.0128,-0.0111,-0.0082,-0.0023,0.0003,-0.0027,0.0083,0.0086,0.0099,0.0089,0.0076,0.0131,0.0079,0.008,0.008,0,-0.03,-0.0317,-0.0348,-0.0363,-0.0365,-0.037,-0.0359,-0.0352,-0.0308,-0.0285,-0.0246,-0.0202,-0.0156,-0.013,-0.0041,-0.0063,-0.0008,0.0035,0.0039,0.0089,0.0112,0.0148,0.0142,0.0089,0.0088,0.0087,0.0087,0,-0.0331,-0.0353,-0.0383,-0.0389,-0.0397,-0.0401,-0.0399,-0.0367,-0.036,-0.0314,-0.0298,-0.0233,-0.0198,-0.0125,-0.0033,-0.0037,0.0067,0.0076,0.0144,0.0145,0.0175,0.0179,0.014,0.014,0.014,0.014,0.014,0,-0.0364,-0.0386,-0.0401,-0.042,-0.0448,-0.0437,-0.0449,-0.0432,-0.0403,-0.039,-0.0327,-0.0295,-0.0195,-0.012,-0.0041,0.0067,0.0065,0.0142,0.0165,0.0147,0.0147,0.0148,0.0148,0.0142,0.0142,0.0141,0.0141,0,-0.0396,-0.0405,-0.0443,-0.0461,-0.0467,-0.0487,-0.0491,-0.0493,-0.046,-0.044,-0.0426,-0.0339,-0.0238,-0.0133,-0.0007,0.0059,0.0159,0.0199,0.0168,0.0186,0.0215,0.0211,0.0275,0.0276,0.0277,0.0278,0.0278,0,-0.0417,-0.044,-0.0478,-0.05,-0.0511,-0.0534,-0.0545,-0.0526,-0.0523,-0.046,-0.0451,-0.035,-0.0264,-0.0078,0.0052,0.0193,0.0196,0.026,0.0253,0.0214,0.0231,0.0224,0.0219,0.0259,0.0259,0.026,0.026,0,-0.0456,-0.0467,-0.0497,-0.0546,-0.057,-0.0596,-0.0607,-0.0613,-0.0577,-0.0538,-0.0464,-0.0388,-0.021,-0.0051,0.0123,0.0204,0.0234,0.0273,0.0253,0.0223,0.0204,0.0218,0.0212,0.0263,0.0263,0.0263,0.0263,0.0263,-0.0478,-0.0509,-0.0547,-0.059,-0.0619,-0.0645,-0.0656,-0.0643,-0.062,-0.0542,-0.0474,-0.033,-0.0199,0.0065,0.0179,0.0286,0.0283,0.0314,0.0311,0.0308,0.0292,0.0275,0.0345,0.0345,0.0345,0.0345,0.0345,0,-0.0508,-0.054,-0.0586,-0.0634,-0.0667,-0.0673,-0.0686,-0.0667,-0.0621,-0.0524,-0.0425,-0.0245,-0.0069,0.0073,0.0245,0.0338,0.0325,0.0354,0.0318,0.0314,0.0311,0.0293,0.0347,0.0347,0.0347,0.0347,0,0,-0.0524,-0.0574,-0.0599,-0.066,-0.0689,-0.0712,-0.0713,-0.0659,-0.0584,-0.0467,-0.0347,-0.0213,-0.0047,0.0075,0.0185,0.0274,0.0269,0.0282,0.0271,0.0212,0.0207,0.028,0.0247,0,0,0,0,0]}],[{"header":{"parameterUnit":"m.s-1","parameterCategory":2,"la1":30.2991,"la2":30.254,"lo1":-89.0895,"lo2":-89.0444,"dy":0.0017,"dx":0.0017,"nx":28,"ny":28,"refTime":"2025-11-05T09:00:00:Z","depth":"4","parameterNumber":2,"parameterNumberName":"U-component_of_CURRENTS"},"data":[0,0,0,0,0,0,0,0,0,0,0,0,0,0,0,0,0,0,0,0,0,0,0,0,0,0,0,0,0,0,0,0,0,0,0,0,0,0,0,0,0,0,0,0,0,0,0,0,0,0,0,0,0,0,0,0,0,0,-0.0972,-0.0972,0,-0.0996,-0.0997,-0.0997,-0.1002,-0.1002,-0.1002,-0.1002,-0.0987,-0.0986,-0.0986,0,0,0,0,0,0,0,0,0,0,0,0,0,-0.0924,-0.0925,-0.0972,-0.0972,-0.0973,-0.0996,-0.0997,-0.0997,-0.1002,-0.1002,-0.1002,-0.1002,-0.0987,-0.0986,-0.0986,0,0,0,0,0,0,0,0,0,0,0,0,0,-0.0946,-0.0925,-0.0972,-0.0979,-0.0979,-0.0996,-0.0997,-0.0997,-0.1002,-0.1002,-0.1002,-0.1002,-0.0987,-0.0986,-0.0986,-0.0987,0,0,-0.0985,-0.0984,0,0,0,0,0,0,0,0,-0.0945,-0.0948,-0.0977,-0.0978,-0.0979,-0.0996,-0.0974,-0.0992,-0.1002,-0.0993,-0.1002,-0.1002,-0.0987,-0.0986,-0.0991,-0.0986,-0.0986,-0.0985,-0.0984,-0.0984,-0.0984,0,0,0,0,0,0,0,-0.0943,-0.0947,-0.0981,-0.0978,-0.0979,-0.0978,-0.0981,-0.0978,-0.099,-0.0994,-0.0995,-0.0998,-0.0987,-0.0992,-0.0991,-0.0985,-0.0985,-0.0984,-0.0984,-0.0984,-0.1045,-0.1047,0,0,0,0,0,0,-0.0942,-0.0945,-0.098,-0.0982,-0.0962,-0.0979,-0.0983,-0.0991,-0.099,-0.0991,-0.0998,-0.0998,-0.0992,-0.0991,-0.099,-0.1038,-0.0984,-0.0984,-0.0983,-0.1044,-0.1046,-0.1048,0,0,0,0,0,0,-0.0941,-0.0945,-0.0979,-0.0964,-0.0969,-0.0981,-0.099,-0.0991,-0.101,-0.0994,-0.0994,-0.1017,-0.0992,-0.0991,-0.1015,-0.1035,-0.0983,-0.0983,-0.1041,-0.1044,-0.1047,-0.1103,0,0,0,0,0,0,-0.0939,-0.0945,-0.0958,-0.0964,-0.0969,-0.1,-0.099,-0.0992,-0.1012,-0.1012,-0.1009,-0.1007,-0.0992,-0.1017,-0.1015,-0.1034,-0.0983,-0.1039,-0.1043,-0.1046,-0.1099,-0.1108,-0.1115,0,0,0,0,0,-0.0938,-0.0953,-0.0959,-0.0963,-0.0985,-0.1001,-0.1004,-0.101,-0.1013,-0.1026,-0.1036,-0.1008,-0.1038,-0.1018,-0.1016,-0.1035,-0.1037,-0.1042,-0.1046,-0.1096,-0.1106,-0.1115,0,0,0,0,0,0,-0.094,-0.0956,-0.0961,-0.0982,-0.0996,-0.1002,-0.1018,-0.1022,-0.1041,-0.1046,-0.1031,-0.1031,-0.106,-0.1046,-0.1025,-0.1067,-0.1033,-0.1037,-0.1072,-0.1081,-0.1089,-0.1079,-0.0982,0,0,0,0,0,-0.0948,-0.0965,-0.0977,-0.0996,-0.1005,-0.1016,-0.1026,-0.1032,-0.1045,-0.1053,-0.1054,-0.1062,-0.1075,-0.1078,-0.1084,-0.1104,-0.108,-0.1117,-0.1125,-0.1132,-0.1125,-0.1126,-0.1132,-0.1062,-0.1062,-0.1062,0,0,-0.0955,-0.0966,-0.0977,-0.0998,-0.1011,-0.1028,-0.1022,-0.1045,-0.1064,-0.1048,-0.1082,-0.109,-0.1089,-0.1117,-0.1128,-0.1107,-0.1142,-0.1137,-0.1143,-0.1132,-0.1131,-0.1137,-0.1143,-0.1065,-0.1064,-0.1064,0,0,-0.0969,-0.0989,-0.1005,-0.102,-0.1042,-0.105,-0.1061,-0.1079,-0.1094,-0.1125,-0.1127,-0.1154,-0.1164,-0.1174,-0.1177,-0.1234,-0.1188,-0.1237,-0.1262,-0.1264,-0.1268,-0.1273,-0.1252,-0.1254,-0.1236,-0.1237,-0.1237,0,-0.0977,-0.0997,-0.1013,-0.103,-0.1046,-0.1062,-0.1081,-0.1102,-0.1128,-0.1143,-0.1143,-0.1185,-0.119,-0.1221,-0.1248,-0.125,-0.1233,-0.1222,-0.1272,-0.1275,-0.1278,-0.1256,-0.1257,-0.124,-0.1239,-0.1239,-0.1239,0,-0.0995,-0.1019,-0.1032,-0.106,-0.108,-0.1102,-0.1127,-0.1155,-0.1175,-0.1188,-0.1231,-0.1247,-0.1265,-0.1282,-0.1281,-0.1315,-0.1289,-0.1284,-0.124,-0.1288,-0.1262,-0.1263,-0.1244,-0.1243,-0.1242,-0.1242,0,0,-0.0984,-0.1034,-0.1039,-0.1058,-0.1097,-0.1113,-0.1156,-0.119,-0.1215,-0.1247,-0.1273,-0.1318,-0.1322,-0.1328,-0.1337,-0.1345,-0.1364,-0.1326,-0.1324,-0.1293,-0.1349,-0.1251,-0.1242,-0.1364,-0.1364,-0.1364,-0.1321,0,-0.0991,-0.1028,-0.1053,-0.1093,-0.1113,-0.1148,-0.1183,-0.1219,-0.1248,-0.128,-0.1305,-0.1334,-0.1341,-0.1354,-0.1368,-0.1368,-0.1367,-0.1375,-0.1317,-0.1315,-0.1212,-0.124,-0.1366,-0.132,-0.132,-0.132,-0.132,0,-0.099,-0.1018,-0.1056,-0.1108,-0.1121,-0.1151,-0.1205,-0.1237,-0.1285,-0.1307,-0.1338,-0.1351,-0.1383,-0.1378,-0.1386,-0.1388,-0.1372,-0.1365,-0.1363,-0.1247,-0.1217,-0.1264,-0.132,-0.132,-0.132,-0.132,-0.132,0,-0.0959,-0.1015,-0.1048,-0.1066,-0.1128,-0.1158,-0.1193,-0.1246,-0.1271,-0.1322,-0.1336,-0.1371,-0.1383,-0.1383,-0.1374,-0.1381,-0.1361,-0.1365,-0.1257,-0.1249,-0.1324,-0.1319,-0.1358,-0.1358,-0.1358,-0.1358,-0.1358,0,-0.094,-0.0967,-0.104,-0.1055,-0.1095,-0.1147,-0.1188,-0.1228,-0.1277,-0.1295,-0.1345,-0.1349,-0.1385,-0.1378,-0.137,-0.1303,-0.1354,-0.1253,-0.1232,-0.135,-0.1349,-0.1323,-0.1319,-0.1357,-0.1357,-0.1357,-0.1358,0,-0.0891,-0.0941,-0.0981,-0.1056,-0.108,-0.1108,-0.1175,-0.1197,-0.1255,-0.1277,-0.1291,-0.1332,-0.1315,-0.1325,-0.1315,-0.1277,-0.1239,-0.1201,-0.131,-0.1297,-0.1127,-0.1128,-0.1074,-0.107,-0.1067,-0.1064,-0.1062,0,-0.0866,-0.0884,-0.0967,-0.0988,-0.1024,-0.1074,-0.1101,-0.1173,-0.1191,-0.1248,-0.1243,-0.1253,-0.1265,-0.116,-0.1194,-0.115,-0.114,-0.1113,-0.1137,-0.1113,-0.1099,-0.1104,-0.1109,-0.1057,-0.1056,-0.1055,-0.1054,0,-0.0813,-0.0853,-0.0884,-0.093,-0.0968,-0.1001,-0.1047,-0.105,-0.112,-0.1184,-0.115,-0.1131,-0.1101,-0.1085,-0.1051,-0.103,-0.1132,-0.108,-0.1086,-0.1108,-0.1092,-0.1082,-0.109,-0.1043,-0.1045,-0.1046,-0.1046,0,-0.0771,-0.0781,-0.0828,-0.0857,-0.0902,-0.0911,-0.0947,-0.0958,-0.0982,-0.1049,-0.1032,-0.1044,-0.1081,-0.102,-0.0996,-0.0958,-0.0949,-0.0926,-0.0941,-0.0954,-0.0937,-0.09,-0.0765,0,0,0,0,0,-0.0723,-0.0725,-0.0748,-0.0778,-0.0818,-0.0841,-0.09,-0.0939,-0.1007,-0.0949,-0.0986,-0.0952,-0.0907,-0.0919,-0.0853,-0.0948,-0.0959,-0.0869,-0.0944,-0.0981,-0.0994,-0.0986,0,0,0,0,0,0,-0.069,-0.0711,-0.072,-0.0701,-0.0703,-0.0735,-0.0767,-0.0817,-0.0791,-0.086,-0.0834,-0.0888,-0.0854,-0.0917,-0.0828,-0.0831,-0.0858,-0.0885,-0.0882,-0.0974,-0.0986,-0.0996,-0.0993,0,0,0,0,0]},{"header":{"parameterUnit":"m.s-1","parameterCategory":2,"la1":30.2991,"la2":30.254,"lo1":-89.0895,"lo2":-89.0444,"dy":0.0017,"dx":0.0017,"nx":28,"ny":28,"refTime":"2025-11-05T09:00:00:Z","depth":"4","parameterNumber":3,"parameterNumberName":"V-component_of_CURRENTS"},"data":[0,0,0,0,0,0,0,0,0,0,0,0,0,0,0,0,0,0,0,0,0,0,0,0,0,0,0,0,0,0,0,0,0,0,0,0,0,0,0,0,0,0,0,0,0,0,0,0,0,0,0,0,0,0,0,0,0,0,-0.0098,-0.0098,0,-0.0066,-0.0065,-0.0065,-0.0035,-0.0035,-0.0034,-0.0034,0.0051,0.0053,0.0055,0,0,0,0,0,0,0,0,0,0,0,0,0,-0.0102,-0.0102,-0.0098,-0.0098,-0.0097,-0.0066,-0.0065,-0.0065,-0.0035,-0.0035,-0.0034,-0.0034,0.005,0.0052,0.0055,0,0,0,0,0,0,0,0,0,0,0,0,0,-0.0087,-0.0102,-0.0098,-0.008,-0.0078,-0.0066,-0.0065,-0.0065,-0.0035,-0.0035,-0.0034,-0.0034,0.0049,0.0052,0.0055,0.0066,0,0,0.0064,0.0066,0,0,0,0,0,0,0,0,-0.0088,-0.0087,-0.0083,-0.0081,-0.0079,-0.0055,-0.0035,-0.0019,-0.0035,-0.005,-0.0034,-0.0034,0.0019,0.0025,0.0031,0.007,0.0073,0.0065,0.0066,0.0068,0.0069,0,0,0,0,0,0,0,-0.0089,-0.0088,-0.0084,-0.0082,-0.008,-0.0062,-0.006,-0.0032,-0.0016,-0.0049,-0.0047,-0.0045,0.0021,0.0028,0.0033,0.0075,0.0065,0.0067,0.0069,0.007,0.0133,0.0133,0,0,0,0,0,0,-0.0097,-0.0089,-0.0085,-0.0083,-0.0083,-0.0062,-0.006,-0.0062,-0.0018,-0.0011,-0.0045,-0.0044,0.0022,0.0029,0.0036,0.005,0.0068,0.0071,0.0072,0.0133,0.0133,0.0133,0,0,0,0,0,0,-0.0098,-0.0097,-0.0086,-0.0086,-0.0083,-0.0063,-0.0066,-0.0062,-0.0054,-0.0016,-0.0008,-0.0043,0.0023,0.0032,0.0056,0.0054,0.0072,0.0075,0.0133,0.0133,0.0133,0.0079,0,0,0,0,0,0,-0.0098,-0.0098,-0.0102,-0.0087,-0.0084,-0.0083,-0.0066,-0.0061,-0.0054,-0.0052,-0.0011,-0.0003,0.0024,0.0051,0.0059,0.0058,0.0077,0.0133,0.0133,0.0133,0.0081,0.0077,0.0074,0,0,0,0,0,-0.0098,-0.0106,-0.0102,-0.0102,-0.009,-0.0084,-0.0081,-0.0064,-0.0055,-0.0055,-0.0029,-0.0004,0.0055,0.0053,0.0062,0.0063,0.0134,0.0133,0.0133,0.0083,0.0078,0.0074,0,0,0,0,0,0,-0.011,-0.0103,-0.0099,-0.0104,-0.0097,-0.0079,-0.0078,-0.0067,-0.0048,-0.0044,-0.0006,0.0003,0.0023,0.005,0.0047,0.008,0.0099,0.01,0.0058,0.0054,0.005,0.0045,0.008,0,0,0,0,0,-0.0116,-0.012,-0.011,-0.0115,-0.0113,-0.0097,-0.0092,-0.0082,-0.0063,-0.0055,-0.0028,0.0003,0.0028,0.0046,0.0071,0.009,0.0117,0.0097,0.0094,0.009,0.0093,0.0128,0.0127,0.0132,0.0132,0.0132,0,0,-0.0122,-0.0119,-0.0122,-0.0118,-0.011,-0.0111,-0.0092,-0.0089,-0.0087,-0.0048,-0.0035,-0.001,0.003,0.0047,0.0059,0.0071,0.01,0.009,0.0087,0.0091,0.0127,0.0127,0.0127,0.0131,0.0132,0.0132,0,0,-0.0138,-0.0135,-0.0143,-0.014,-0.0133,-0.0124,-0.0125,-0.011,-0.01,-0.0088,-0.006,-0.0037,0.0001,0.0028,0.0047,0.004,0.0077,0.0048,0.003,0.0064,0.0063,0.0064,0.0083,0.0086,0.005,0.005,0.005,0,-0.0146,-0.0156,-0.0144,-0.0151,-0.0151,-0.0132,-0.014,-0.0128,-0.0107,-0.0097,-0.009,-0.0036,-0.0007,0.0022,0.0016,0.0032,0.0052,0.0042,0.0058,0.0059,0.0061,0.0081,0.0084,0.0047,0.0047,0.0048,0.0048,0,-0.0165,-0.0174,-0.0179,-0.0181,-0.0179,-0.0184,-0.0169,-0.0162,-0.0149,-0.0132,-0.0106,-0.007,-0.0035,-0.0026,-0.0007,0.0016,0.0027,0.0045,0.0067,0.0057,0.0078,0.0083,0.0043,0.0044,0.0045,0.0046,0,0,-0.0182,-0.0191,-0.0193,-0.0202,-0.0196,-0.0198,-0.0194,-0.0182,-0.0175,-0.0152,-0.0137,-0.0101,-0.0078,-0.0055,-0.0026,-0.0,0.0017,0.0021,0.0024,0.0035,0.0081,0.0067,0.0071,0.0038,0.0039,0.0039,0.0087,0,-0.0201,-0.0225,-0.022,-0.024,-0.0251,-0.0234,-0.0232,-0.0217,-0.0196,-0.0176,-0.0135,-0.0111,-0.0089,-0.0075,-0.0045,0.0004,0.0029,0.0002,0.0094,0.0097,0.0082,0.0076,0.0042,0.0091,0.0092,0.0093,0.0093,0,-0.022,-0.0235,-0.0261,-0.0273,-0.0276,-0.0282,-0.0273,-0.0268,-0.0231,-0.0213,-0.0178,-0.0142,-0.01,-0.0081,-0.0002,-0.0021,0.0024,0.0061,0.0064,0.0076,0.0092,0.0108,0.0102,0.0101,0.0101,0.01,0.01,0,-0.0241,-0.0262,-0.0287,-0.0292,-0.03,-0.0306,-0.0306,-0.0281,-0.0274,-0.0235,-0.0221,-0.0162,-0.0134,-0.0068,0.0004,0.0003,0.009,0.0103,0.0135,0.0134,0.0156,0.0156,0.0163,0.0162,0.0162,0.0162,0.0162,0,-0.0262,-0.0282,-0.0301,-0.0317,-0.0342,-0.0335,-0.0346,-0.0333,-0.0308,-0.0298,-0.0243,-0.0218,-0.0129,-0.0068,-0.0001,0.0076,0.009,0.0131,0.0148,0.013,0.0127,0.0159,0.0158,0.0164,0.0164,0.0163,0.0163,0,-0.0282,-0.0294,-0.0327,-0.0347,-0.0356,-0.0375,-0.0383,-0.0384,-0.0358,-0.0341,-0.033,-0.0258,-0.0179,-0.0091,0.0017,0.0064,0.0143,0.0169,0.0133,0.0148,0.0165,0.0161,0.0207,0.0207,0.0207,0.0207,0.0207,0,-0.0295,-0.0314,-0.0355,-0.0378,-0.0392,-0.0415,-0.0428,-0.0413,-0.0409,-0.0362,-0.0353,-0.0278,-0.0221,-0.008,0.0009,0.0132,0.0151,0.0185,0.0183,0.0159,0.0171,0.0167,0.0163,0.0206,0.0206,0.0206,0.0206,0,-0.0319,-0.0335,-0.0362,-0.0412,-0.0439,-0.0463,-0.0477,-0.0476,-0.0449,-0.0428,-0.0361,-0.028,-0.0192,-0.0082,0.001,0.01,0.0158,0.0185,0.0186,0.0185,0.0159,0.0171,0.0166,0.0206,0.0206,0.0206,0.0206,0,-0.0334,-0.0361,-0.0399,-0.0438,-0.0475,-0.0497,-0.0501,-0.0485,-0.0473,-0.0414,-0.0394,-0.0287,-0.0223,-0.0098,-0.0011,0.007,0.0093,0.0117,0.0122,0.0123,0.0083,0.0037,0.0061,0,0,0,0,0,-0.0347,-0.0378,-0.042,-0.0462,-0.0498,-0.0516,-0.0526,-0.052,-0.0493,-0.0449,-0.0417,-0.0329,-0.0189,-0.0126,-0.0045,-0.0022,0.0095,0.0073,0.0122,0.0206,0.0206,0.0172,0,0,0,0,0,0,-0.0357,-0.0401,-0.0423,-0.047,-0.05,-0.0533,-0.0539,-0.0522,-0.0488,-0.0449,-0.0372,-0.0319,-0.0183,-0.0234,-0.0046,-0.0022,0.0018,0.0143,0.0144,0.0206,0.0206,0.0206,0.0171,0,0,0,0,0]}]]